User: anonymous   Login
Location: Cypress Hills Dark-Sky Preserve - CHICO
(49.6176°N, 110.2634°W)
Time: 07:33:03
(UTC-06:00)
Language:

SPOT 5 - Orbit

View from above orbital plane
View from above orbital plane
View from above satellite
View from above satellite

Ground track
Ground track

The orbit data is extracted from the following two-line orbital elements,

1 27421U 02021A   17265.18015705  .00000054  00000-0  23505-4 0  9997
2 27421  98.3968 328.5307 0136182  32.0923 328.8475 14.51884803799744
Epoch (UTC): 22 September 2017 04:19:25
Eccentricity: 0.0136182
inclination: 98.3968°
perigee height: 623 km
apogee height: 816 km
right ascension of ascending node: 328.5307°
argument of perigee: 32.0923°
revolutions per day: 14.51884803
mean anomaly at epoch: 328.8475°
orbit number at epoch: 79974

The dashed part of the orbit path shows where the satellite is in the earth's shadow,  

DLR